Regional Weather Roundup
Issued by NWS

Home | Current Version | Previous Version | Graphics & Text | Print | Product List | Glossary On
Versions: 1 2 3 4 5 6 7 8 9 10 11 12 13 14 15 16 17 18 19 20 21 22 23 24 25 26 27 28 29 30 31 32 33 34 35 36 37 38 39 40 41 42 43 44 45 46 47 48 49 50
000
ASUS43 KBIS 061110
RWRND

NORTH DAKOTA REGIONAL WEATHER ROUNDUP
NATIONAL WEATHER SERVICE BISMARCK ND
600 AM CDT WED MAY 06 2015

NOTE: "FAIR" INDICATES FEW OR NO CLOUDS BELOW 12,000 FEET WITH NO
SIGNIFICANT WEATHER AND/OR OBSTRUCTIONS TO VISIBILITY.


NDZ001>003-009>011-017-061200-
NORTHWEST NORTH DAKOTA

CITY           SKY/WX    TMP DP  RH WIND       PRES   REMARKS
WILLISTON      CLOUDY    58  52  80 S10       29.69F
MINOT          CLOUDY    58  53  84 SE12      29.76F
MINOT AFB      CLOUDY    54  54 100 SE8       29.76F
$$

NDZ018>021-031>035-040>046-061200-
SOUTHWEST NORTH DAKOTA

CITY           SKY/WX    TMP DP  RH WIND       PRES   REMARKS
BISMARCK       CLOUDY    59  29  31 SE10      29.81F
DICKINSON      CLOUDY    56  53  90 SE17      29.73S
GARRISON         N/A     57  54  89 SE15      29.78S
HETTINGER ARPT CLOUDY    55  53  93 SE10      29.75F
$$

NDZ004>008-012>016-024-026-027-054-061200-
NORTHEAST NORTH DAKOTA

CITY           SKY/WX    TMP DP  RH WIND       PRES   REMARKS
GRAND FORKS    CLOUDY    60  53  77 SE13      29.91F
GRND FRKS AFB  CLOUDY    59  54  83 SE9       29.91F
DEVILS LAKE    CLOUDY    57  52  82 SE15      29.87S
$$

NDZ022-023-025-028>030-036>039-047>053-061200-
SOUTHEAST NORTH DAKOTA

CITY           SKY/WX    TMP DP  RH WIND       PRES   REMARKS
FARGO          CLOUDY    60  55  83 S10       29.93F
JAMESTOWN      CLOUDY    57  55  93 SE13      29.87F FOG
$$




USA.gov is the U.S. government's official web portal to all federal, state and local government web resources and services.